This is the latest recevied weather packets stored in our database for station/object SP3OTE-2. If no packets are shown the sender has not sent any weather packets the latest 10 day(s).
| Time | Temp. | Humidity | Pressure | Rain* | Wind** | Luminosity | Snow |
|---|---|---|---|---|---|---|---|
| 1777752913 | 13.89° C | 54% | 1020 hPa | - | - | - | - |
| 1777752313 | 13.89° C | 53% | 1019.9 hPa | - | - | - | - |
| 1777751713 | 14.44° C | 52% | 1020 hPa | - | - | - | - |
| 1777751112 | 15° C | 50% | 1019.9 hPa | - | - | - | - |
| 1777750512 | 15.56° C | 50% | 1019.9 hPa | - | - | - | - |
| 1777749912 | 15.56° C | 48% | 1019.9 hPa | - | - | - | - |
| 1777749312 | 16.67° C | 47% | 1019.9 hPa | - | - | - | - |
| 1777748711 | 16.67° C | 46% | 1019.8 hPa | - | - | - | - |
| 1777748111 | 17.22° C | 45% | 1019.8 hPa | - | - | - | - |
| 1777747511 | 18.33° C | 43% | 1019.7 hPa | - | - | - | - |
| 1777746911 | 18.89° C | 42% | 1019.8 hPa | - | - | - | - |
| 1777746311 | 20° C | 41% | 1019.7 hPa | - | - | - | - |
| 1777745710 | 21.11° C | 39% | 1019.6 hPa | - | - | - | - |
| 1777745110 | 22.22° C | 36% | 1019.6 hPa | - | - | - | - |
| 1777744510 | 23.89° C | 34% | 1019.5 hPa | - | - | - | - |
| 1777743909 | 25.56° C | 31% | 1019.6 hPa | - | - | - | - |
| 1777743309 | 27.78° C | 27% | 1019.5 hPa | - | - | - | - |
| 1777742709 | 32.22° C | 25% | 1019.5 hPa | - | - | - | - |
| 1777742108 | 33.33° C | 25% | 1019.6 hPa | - | - | - | - |
| 1777741508 | 33.89° C | 23% | 1019.6 hPa | - | - | - | - |
| 1777740908 | 34.44° C | 23% | 1019.8 hPa | - | - | - | - |
| 1777740308 | 35° C | 23% | 1019.9 hPa | - | - | - | - |
| 1777739707 | 35.56° C | 24% | 1020 hPa | - | - | - | - |
| 1777739107 | 35.56° C | 24% | 1020 hPa | - | - | - | - |
| 1777738507 | 35.56° C | 24% | 1020.1 hPa | - | - | - | - |
* Rain since midnight (hover to see other rain measurements)
** Current wind speed in m/s (hover to see current wind gust speed)